Wind_Speed
8 9 8 8 8 7 7 7 7 8 9 9 10 11 12 12 12 13 13 13 13 13 13 13 13 13 13 12 12 12 12 12 12 11 11 10 10 9 8 8 8 8 8
10 11 10 10 10 10 10 9 9 10 10 10 11 12 12 13 13 13 13 14 14 13 13 13 13 13 13 13 13 13 13 13 13 12 11 11 10 9 8 8 7 7 7
12 12 12 12 12 12 12 12 12 12 12 12 12 12 12 13 13 13 14 14 14 14 13 13 13 13 13 13 13 13 13 14 13 12 11 11 10 9 8 7 6 6 5
12 13 14 14 15 16 15 15 14 14 14 14 14 13 14 13 13 13 13 13 13 13 13 13 13 13 12 12 12 12 12 12 12 11 10 10 10 9 8 6 6 5 4
13 13 14 15 16 18 19 18 17 16 16 16 16 16 16 15 15 14 14 13 13 13 13 13 12 12 12 12 12 11 11 11 10 10 9 9 9 8 7 6 6 5 3
15 15 15 15 16 17 19 20 20 19 19 19 19 18 18 17 17 16 15 14 14 13 13 13 12 12 11 11 11 11 10 10 9 9 8 8 8 7 7 6 5 5 3
17 17 18 18 18 19 18 19 20 22 22 21 21 21 20 19 18 18 17 16 15 14 13 13 12 11 11 10 10 10 10 10 9 8 7 7 7 7 6 6 5 5 4
21 20 21 21 20 20 19 20 22 22 24 23 23 23 23 22 21 20 20 18 17 16 15 14 13 12 11 10 10 10 10 9 9 8 7 7 7 6 6 5 5 5 5
25 24 24 24 24 23 22 22 22 23 24 25 25 25 25 25 24 23 22 21 20 18 17 16 14 13 12 12 11 10 10 9 9 8 7 7 7 6 6 6 5 5 6
28 28 28 27 27 26 25 25 25 25 24 24 25 26 27 27 27 27 25 24 23 21 19 18 17 15 14 13 12 11 10 10 9 8 8 8 7 7 6 6 6 6 6
31 31 31 30 30 30 29 29 29 28 28 28 27 27 28 28 28 29 28 27 26 24 22 20 19 17 16 15 13 12 11 10 9 8 9 8 8 8 8 7 7 7 7
32 32 33 33 33 33 33 33 32 32 32 31 30 29 29 29 29 28 28 28 28 27 25 23 22 20 19 17 15 14 13 11 10 9 9 9 9 9 8 8 8 8 7
32 33 33 33 34 33 34 34 34 34 34 33 33 32 31 30 30 30 29 28 28 28 27 26 24 23 22 20 18 16 15 13 11 10 10 10 9 9 9 9 8 8 9
30 30 30 30 31 32 32 33 34 35 35 36 35 35 34 33 31 31 30 28 27 28 27 27 26 25 24 22 21 19 17 15 14 12 12 11 11 11 11 10 9 9 9
28 27 27 28 28 30 31 32 32 33 33 34 35 36 36 34 32 31 32 32 29 27 27 28 27 26 26 24 23 22 20 18 16 15 14 13 12 12 12 12 11 10 10
26 25 25 25 25 26 27 28 30 30 31 32 33 33 34 35 34 34 33 33 32 30 29 29 28 27 26 26 25 23 22 20 19 18 16 15 14 14 13 13 13 12 12
24 24 23 23 23 24 24 25 26 27 28 29 30 31 31 32 32 32 33 33 33 33 32 31 29 28 28 27 26 25 24 22 21 20 19 18 16 16 15 15 14 14 13
23 22 22 22 22 22 22 22 22 23 24 26 27 29 30 30 31 32 31 32 32 33 33 33 31 30 30 29 29 27 25 24 23 22 21 20 19 18 17 17 16 16 15
22 21 21 21 20 19 19 19 19 19 20 22 24 26 27 29 30 31 32 33 32 32 33 34 32 32 32 31 30 29 28 26 25 25 24 23 22 21 20 19 18 18 17
21 20 20 19 19 18 17 17 17 17 18 19 21 23 24 26 28 29 30 32 32 32 33 33 34 34 33 33 32 30 30 29 28 27 27 26 24 23 23 22 21 20 19
20 20 20 19 18 17 15 15 15 15 16 16 18 20 22 23 26 27 29 30 32 32 33 33 33 34 34 34 33 32 31 31 30 29 29 27 27 26 25 24 23 22 22
20 20 20 19 18 17 15 14 14 14 15 15 16 17 19 21 23 25 27 28 30 31 33 33 34 35 34 34 34 34 31 31 30 30 30 30 29 28 28 26 26 24 24
20 20 20 19 18 17 15 15 14 14 14 14 15 15 17 18 20 22 24 26 28 30 31 33 34 35 35 35 34 34 33 33 31 31 31 32 31 31 31 29 28 27 26
20 20 20 20 19 18 17 16 15 14 14 13 14 14 15 16 17 19 22 24 26 28 30 32 34 35 35 35 36 36 35 34 33 31 31 32 33 32 32 32 30 30 29
20 20 20 20 20 19 19 18 16 15 14 13 13 14 14 15 15 17 19 21 24 26 28 30 32 34 35 35 36 37 37 37 35 34 33 32 32 33 33 33 33 31 30
20 21 21 21 21 20 20 19 18 17 16 15 14 14 13 14 14 15 17 19 22 24 26 28 30 32 33 34 35 36 37 37 37 37 36 35 34 34 34 35 35 34 33
Wind_Direction
278 273 270 266 266 264 260 257 254 250 249 247 244 241 240 241 242 241 239 238 239 239 240 240 242 242 242 244 249 253 256 260 265 270 274 281 289 295 302 312 320 328 339
280 274 270 268 266 265 263 261 258 255 253 252 251 249 248 247 246 244 243 243 243 241 242 243 244 243 245 248 251 253 255 258 263 267 269 276 283 287 291 299 306 314 327
283 276 268 265 264 264 263 262 261 258 256 254 253 252 252 251 250 248 247 247 245 243 243 244 245 246 249 251 251 252 253 256 259 262 265 270 276 280 283 288 292 299 313
290 281 272 266 263 260 257 256 257 256 256 256 255 254 255 255 253 251 250 248 245 243 244 246 248 251 251 250 250 250 253 256 257 259 263 267 271 274 274 275 277 285 295
295 287 282 275 268 264 258 253 252 251 252 252 252 253 254 255 254 252 251 249 247 246 246 247 249 250 250 249 248 248 251 255 257 259 260 262 264 268 266 263 262 268 271
297 289 288 287 286 276 267 256 252 249 250 251 250 250 251 253 253 252 250 249 249 248 247 247 248 249 249 248 246 246 249 254 255 257 258 257 259 262 260 256 249 246 239
295 290 286 287 288 286 276 263 255 251 248 249 250 250 250 250 251 250 250 248 248 247 247 247 248 248 248 247 245 246 248 251 253 255 254 252 253 253 255 248 236 226 213
291 288 285 285 284 284 279 271 264 257 250 249 249 249 248 247 248 248 248 247 246 245 245 245 246 247 247 246 245 246 248 249 250 250 247 246 248 249 244 231 218 208 205
289 286 282 280 280 279 277 270 267 263 258 252 251 250 249 247 246 246 248 246 244 244 243 243 244 245 245 244 244 245 247 248 247 245 242 243 240 238 230 215 205 199 196
289 286 283 279 277 276 275 270 266 263 260 257 257 255 250 248 247 245 246 246 244 242 241 242 242 243 243 243 243 243 245 247 244 241 242 241 234 227 217 208 202 198 194
289 287 283 281 277 274 273 271 268 266 264 262 259 256 253 251 249 246 247 247 246 242 239 240 241 241 241 241 242 241 242 243 240 238 239 237 228 222 213 206 202 197 193
291 289 285 282 279 275 273 271 269 268 267 264 261 258 254 252 251 249 250 249 245 242 239 239 239 240 239 239 240 238 239 239 237 236 235 231 225 220 210 204 202 199 193
294 292 289 286 282 278 275 272 269 268 267 264 263 261 259 256 253 249 250 249 246 242 240 239 239 239 238 238 239 239 238 238 236 235 234 229 224 217 212 208 205 203 199
298 295 292 289 285 280 276 273 270 267 266 264 264 264 263 259 256 251 248 248 251 248 243 240 241 240 238 237 237 238 239 239 236 233 234 229 224 219 216 214 211 207 202
302 299 296 292 289 285 280 276 272 269 266 264 264 264 262 259 259 254 252 250 252 252 248 243 241 241 239 238 237 237 237 238 236 232 234 230 226 223 221 219 215 209 206
309 305 301 297 293 290 285 279 275 271 268 265 264 263 261 260 259 257 255 252 251 252 251 248 245 243 241 239 238 238 236 237 236 233 233 231 227 225 224 222 217 214 212
315 311 307 302 298 293 290 285 280 274 269 267 265 264 261 259 257 256 253 253 252 252 253 253 249 246 243 242 240 238 238 237 236 234 232 232 229 227 227 223 220 219 217
322 319 314 310 305 298 293 290 284 279 273 268 265 264 262 260 258 255 254 253 253 253 251 251 250 249 247 246 242 241 241 241 238 235 231 232 231 229 227 225 223 222 221
329 326 323 320 315 307 300 295 290 283 277 271 267 265 264 263 260 257 255 254 252 251 251 250 249 248 250 249 245 243 242 243 242 237 233 232 231 230 228 227 226 225 225
337 335 334 331 326 319 308 301 296 291 284 278 272 268 265 262 261 258 255 254 253 251 250 249 247 248 249 249 248 247 245 244 244 240 237 235 233 231 228 229 228 227 227
345 344 343 340 337 332 323 314 307 301 296 290 282 274 268 264 262 259 255 252 252 251 249 248 247 247 248 248 249 249 246 245 243 240 238 236 233 231 229 230 230 228 229
354 352 350 348 344 341 335 327 318 311 306 300 291 284 276 270 265 260 257 254 252 250 248 246 247 246 245 246 247 246 245 245 242 240 239 238 234 233 230 229 230 230 231
0 359 359 358 356 354 349 343 335 326 317 309 299 291 286 279 272 264 259 256 253 251 248 246 246 245 244 244 244 244 246 246 242 241 241 239 236 235 232 229 230 231 232
6 6 6 6 6 5 0 354 349 342 332 323 313 302 294 286 279 270 263 258 255 253 250 248 247 245 245 244 243 244 245 245 244 241 239 238 237 235 233 230 231 232 233
11 11 10 10 11 11 9 5 359 354 346 337 327 316 304 294 286 278 269 262 258 256 254 252 250 247 246 246 245 245 244 244 244 243 241 238 238 236 233 232 232 233 233
17 16 16 15 14 13 12 10 7 3 357 349 340 330 317 305 295 287 277 269 264 261 258 255 252 250 248 247 247 246 245 245 245 243 242 240 239 238 236 235 234 235 235
Height
5899 5897 5897 5897 5897 5896 5896 5895 5895 5894 5894 5894 5894 5894 5894 5894 5894 5894 5894 5894 5895 5895 5896 5896 5897 5897 5898 5898 5899 5899 5899 5899 5899 5900 5900 5900 5900 5900 5900 5900 5899 5899 5898
5897 5896 5896 5896 5896 5895 5895 5895 5894 5894 5893 5893 5893 5893 5893 5893 5893 5893 5893 5893 5894 5894 5894 5895 5895 5896 5896 5897 5897 5897 5897 5897 5898 5898 5898 5899 5899 5899 5899 5899 5898 5898 5898
5896 5895 5895 5895 5894 5894 5894 5893 5893 5893 5892 5892 5892 5892 5892 5892 5892 5892 5892 5892 5893 5893 5893 5893 5894 5894 5894 5895 5895 5895 5895 5895 5896 5896 5897 5897 5897 5897 5897 5898 5898 5897 5897
5895 5894 5893 5893 5892 5892 5892 5891 5891 5891 5891 5891 5891 5891 5891 5891 5891 5891 5891 5891 5891 5891 5892 5892 5892 5892 5893 5893 5893 5893 5893 5893 5894 5895 5895 5895 5895 5896 5896 5896 5897 5897 5897
5893 5892 5891 5890 5890 5889 5889 5889 5889 5889 5889 5889 5889 5889 5889 5889 5889 5890 5890 5890 5890 5890 5890 5890 5891 5891 5891 5891 5892 5892 5892 5892 5893 5893 5893 5894 5894 5894 5895 5895 5895 5896 5896
5891 5890 5889 5888 5887 5886 5886 5886 5886 5886 5886 5886 5886 5887 5887 5887 5887 5888 5888 5888 5888 5888 5888 5889 5889 5889 5889 5890 5890 5890 5890 5891 5891 5891 5892 5892 5892 5893 5893 5894 5894 5895 5895
5888 5887 5886 5885 5885 5884 5883 5882 5882 5882 5883 5883 5883 5884 5884 5884 5885 5885 5885 5886 5886 5886 5887 5887 5887 5888 5888 5888 5888 5888 5889 5889 5890 5890 5891 5891 5891 5892 5892 5893 5893 5894 5894
5885 5884 5882 5881 5881 5880 5879 5879 5879 5878 5879 5879 5879 5880 5880 5881 5881 5882 5883 5883 5884 5884 5884 5885 5885 5886 5886 5886 5887 5887 5887 5888 5888 5889 5889 5890 5890 5891 5891 5892 5892 5893 5894
5880 5879 5877 5877 5876 5875 5874 5874 5874 5874 5874 5874 5875 5875 5876 5877 5877 5878 5879 5880 5881 5881 5882 5882 5883 5884 5884 5885 5885 5885 5886 5886 5887 5888 5888 5888 5889 5890 5890 5891 5891 5892 5893
5874 5873 5871 5871 5870 5870 5869 5868 5868 5868 5869 5869 5870 5870 5871 5872 5873 5874 5875 5876 5877 5878 5879 5879 5880 5881 5882 5882 5883 5883 5884 5885 5885 5886 5887 5887 5888 5889 5889 5890 5891 5892 5893
5868 5866 5865 5864 5863 5863 5863 5862 5862 5862 5863 5863 5864 5864 5865 5866 5867 5868 5870 5871 5872 5873 5874 5876 5877 5878 5879 5880 5881 5881 5882 5883 5884 5885 5885 5886 5887 5887 5888 5889 5890 5891 5892
5861 5859 5857 5856 5856 5855 5855 5855 5855 5855 5856 5856 5857 5858 5859 5860 5861 5862 5864 5865 5867 5868 5870 5871 5873 5874 5876 5877 5878 5879 5880 5881 5882 5883 5884 5885 5886 5886 5887 5888 5889 5891 5892
5854 5852 5850 5848 5847 5847 5847 5847 5847 5847 5848 5849 5850 5851 5852 5853 5854 5856 5858 5860 5861 5863 5865 5866 5869 5870 5872 5874 5875 5876 5877 5879 5880 5881 5882 5883 5884 5885 5886 5887 5889 5890 5891
5847 5845 5843 5840 5839 5838 5838 5838 5838 5839 5840 5841 5842 5843 5844 5846 5848 5849 5852 5854 5855 5857 5859 5861 5864 5866 5868 5869 5871 5873 5874 5876 5878 5879 5880 5881 5883 5884 5885 5886 5888 5889 5890
5841 5838 5836 5834 5832 5831 5830 5830 5830 5831 5832 5833 5834 5835 5837 5839 5841 5842 5845 5847 5849 5851 5853 5856 5858 5860 5863 5865 5867 5869 5871 5873 5875 5877 5878 5879 5881 5882 5883 5885 5886 5888 5889
5835 5833 5830 5828 5826 5824 5823 5822 5822 5823 5823 5824 5825 5827 5828 5830 5833 5835 5837 5840 5843 5845 5847 5849 5851 5855 5857 5859 5862 5864 5866 5868 5871 5873 5875 5876 5878 5880 5881 5883 5885 5886 5888
5831 5828 5825 5823 5820 5818 5816 5815 5815 5815 5816 5817 5818 5819 5821 5822 5825 5827 5830 5832 5835 5838 5840 5843 5845 5848 5851 5854 5856 5859 5861 5864 5867 5869 5871 5873 5875 5877 5879 5881 5883 5884 5886
5828 5824 5821 5818 5815 5812 5811 5809 5808 5808 5808 5809 5810 5811 5813 5815 5817 5819 5822 5825 5827 5830 5833 5836 5839 5842 5845 5848 5851 5854 5856 5859 5862 5865 5867 5869 5872 5874 5876 5878 5880 5882 5884
5825 5821 5817 5813 5810 5807 5805 5804 5803 5802 5802 5803 5803 5804 5806 5807 5809 5811 5814 5817 5819 5822 5825 5828 5832 5835 5838 5841 5844 5848 5851 5853 5856 5859 5862 5865 5868 5870 5872 5875 5877 5879 5881
5822 5818 5814 5810 5807 5804 5801 5799 5798 5797 5797 5797 5797 5798 5799 5800 5802 5804 5806 5809 5812 5815 5818 5821 5824 5828 5831 5834 5837 5841 5844 5847 5850 5853 5857 5860 5863 5866 5868 5871 5873 5876 5878
5820 5816 5812 5808 5804 5801 5798 5796 5795 5794 5793 5793 5792 5792 5793 5794 5795 5797 5799 5801 5804 5807 5810 5813 5816 5820 5823 5827 5830 5834 5837 5840 5844 5847 5850 5854 5857 5861 5864 5866 5869 5872 5874
5820 5815 5811 5806 5802 5799 5796 5794 5793 5791 5790 5789 5788 5788 5788 5788 5788 5790 5792 5794 5796 5799 5802 5806 5809 5812 5816 5819 5823 5826 5829 5834 5837 5840 5844 5847 5851 5854 5858 5861 5864 5868 5870
5819 5815 5810 5806 5802 5798 5795 5793 5791 5789 5787 5786 5785 5784 5783 5783 5783 5783 5785 5787 5789 5792 5795 5798 5801 5804 5808 5812 5815 5819 5822 5826 5829 5833 5837 5840 5844 5848 5852 5856 5859 5862 5865
5820 5815 5811 5807 5803 5799 5795 5792 5790 5787 5785 5783 5782 5780 5779 5778 5778 5778 5779 5780 5782 5784 5787 5790 5793 5796 5800 5804 5807 5811 5815 5818 5822 5826 5830 5833 5836 5841 5845 5849 5852 5856 5860
5820 5816 5812 5808 5804 5800 5796 5793 5789 5786 5784 5782 5779 5777 5776 5775 5774 5773 5774 5775 5776 5777 5779 5782 5785 5788 5791 5795 5799 5802 5806 5809 5813 5818 5822 5825 5829 5834 5838 5842 5845 5849 5853
5822 5818 5813 5809 5805 5801 5797 5793 5790 5786 5783 5780 5778 5775 5773 5771 5770 5769 5769 5769 5770 5771 5773 5775 5777 5780 5783 5787 5790 5793 5797 5801 5805 5809 5813 5817 5822 5826 5830 5835 5839 5843 5847